Volver al catálogo

STARLINK-5270

ActivoComunicacionesVLEO
NORAD 55299·PAYLOAD·🇺🇸 United States

Lanzado Jan 19, 2023 desde Vandenberg Space Force Base

Loading…

Próximos Pases (próximas 24 horas)

TLE

ActualizadoSource: CelesTrak SupGP

Época: Sep 15, 2026, 01:24 UTC

1 55299C 23010AG  26258.05881944 -.00007830  00000+0 -65601-3 0  2586
2 55299  69.9997 266.8456 0003840 264.6048 264.3946 14.98340368    14

Sigue STARLINK-5270 en tiempo real con AllMySat

Download on the App Store